This is the latest recevied weather packets stored in our database for station/object OE3MHU-13. If no packets are shown the sender has not sent any weather packets the latest 10 day(s).
| Time | Temp. | Humidity | Pressure | Rain* | Wind** | Luminosity | Snow |
|---|---|---|---|---|---|---|---|
| 1787840214 | 29.44° C | 49% | 1018.3 hPa | 0 mm | - | - | - |
| 1787839907 | 30° C | 49% | 1018.3 hPa | 0 mm | - | - | - |
| 1787839601 | 30° C | 48% | 1018.3 hPa | 0 mm | - | - | - |
| 1787839295 | 30° C | 49% | 1018.2 hPa | 0 mm | - | - | - |
| 1787838989 | 30° C | 49% | 1018.2 hPa | 0 mm | - | - | - |
| 1787838682 | 30° C | 48% | 1018.3 hPa | 0 mm | - | - | - |
| 1787838377 | 30° C | 49% | 1018.3 hPa | 0 mm | - | - | - |
| 1787838071 | 30° C | 49% | 1018.3 hPa | 0 mm | - | - | - |
| 1787837766 | 30° C | 49% | 1018.4 hPa | 0 mm | - | - | - |
| 1787837459 | 30° C | 49% | 1018.2 hPa | 0 mm | - | - | - |
| 1787837155 | 29.44° C | 50% | 1018.3 hPa | 0 mm | - | - | - |
| 1787836847 | 29.44° C | 50% | 1018.5 hPa | 0 mm | - | - | - |
| 1787836541 | 28.33° C | 52% | 1018.6 hPa | 0 mm | - | - | - |
| 1787836236 | 28.33° C | 52% | 1018.7 hPa | 0 mm | - | - | - |
| 1787835929 | 28.89° C | 51% | 1018.7 hPa | 0 mm | - | - | - |
| 1787835624 | 28.89° C | 51% | 1018.6 hPa | 0 mm | - | - | - |
| 1787835324 | 28.89° C | 50% | 1018.7 hPa | 0 mm | - | - | - |
| 1787835024 | 29.44° C | 51% | 1018.8 hPa | 0 mm | - | - | - |
| 1787834725 | 28.89° C | 51% | 1019 hPa | 0 mm | - | - | - |
| 1787834423 | 28.33° C | 53% | 1019 hPa | 0 mm | - | - | - |
| 1787834124 | 27.78° C | 53% | 1019.1 hPa | 0 mm | - | - | - |
| 1787833824 | 27.78° C | 53% | 1019.1 hPa | 0 mm | - | - | - |
| 1787833523 | 27.78° C | 54% | 1019.2 hPa | 0 mm | - | - | - |
| 1787833223 | 27.78° C | 52% | 1019.1 hPa | 0 mm | - | - | - |
| 1787832923 | 27.78° C | 53% | 1019.2 hPa | 0 mm | - | - | - |
* Rain latest hour (hover to see other rain measurements)
** Current wind speed in m/s (hover to see current wind gust speed)